Wetbulb
43.43 37.79 34.47 38.74 39.51 40.43 38.86 35.94 34.15 32.35 35.77 34.71 33.36 31.86 34.25 34.45 33.61 33.72 33.49 34.49 35.49 37.45 39.83 41.05 41.28 41.75 40.72 39.96 39.40 39.17 38.62 37.73 38.07 37.60 36.41 35.61 34.15 34.54 34.71 35.78 36.04 35.51 35.03 35.89
40.96 36.73 41.08 42.31 41.77 40.35 39.77 35.85 33.04 34.66 36.98 35.77 32.87 32.73 32.90 34.53 36.06 36.11 35.05 34.14 35.80 37.10 38.73 40.62 40.44 41.07 40.44 39.54 38.68 38.37 37.99 37.53 37.08 37.60 36.63 35.81 34.40 34.38 34.22 34.89 34.87 35.28 34.79 35.35
38.45 41.93 45.76 42.61 40.73 39.80 38.91 36.13 34.68 34.54 35.58 35.97 33.99 31.47 31.27 35.51 35.63 36.00 36.07 36.49 37.72 39.44 38.92 39.98 40.86 40.28 39.07 38.98 37.77 38.07 37.51 37.51 37.65 37.48 36.67 35.72 34.89 33.92 33.69 33.40 33.90 34.52 34.55 35.00
41.13 45.33 44.03 42.88 40.93 41.05 36.02 41.56 39.70 37.09 33.46 27.99 35.74 23.81 32.11 32.92 34.66 36.26 37.03 35.56 37.63 38.99 40.02 40.45 40.60 38.99 38.73 38.36 36.86 37.31 37.86 37.89 38.10 36.72 34.75 32.85 31.56 30.80 31.75 32.13 32.51 33.22 34.20 33.76
39.77 42.09 41.23 40.20 41.58 42.94 39.09 42.01 39.27 37.88 32.81 31.15 32.07 25.93 31.50 33.69 32.00 34.69 36.65 36.89 37.28 38.56 39.91 38.51 41.06 40.02 39.32 37.31 35.84 36.36 37.37 37.56 37.10 36.12 34.27 32.44 31.43 31.57 32.06 32.01 31.94 32.02 32.57 33.25
43.18 47.03 44.84 44.60 44.07 44.00 43.21 39.37 37.91 36.76 32.35 21.62 30.39 28.15 26.58 30.47 34.86 36.46 38.20 37.91 38.16 37.81 38.26 41.41 40.81 40.80 38.01 34.94 35.10 35.67 36.27 36.18 36.34 35.17 34.02 32.53 31.44 31.45 31.17 30.73 30.68 31.20 31.58 31.37
42.39 42.40 43.85 45.26 40.35 42.81 40.76 34.47 21.84 21.73 20.04 19.00 35.83 30.46 32.02 38.51 40.20 39.24 38.72 37.49 38.21 39.16 40.15 39.23 39.34 38.74 37.00 35.44 34.69 35.74 35.93 35.21 35.47 34.64 33.79 33.04 32.28 31.77 31.14 30.63 30.10 30.00 30.27 29.81
32.78 30.19 40.22 44.50 40.70 38.96 38.16 36.83 23.57 16.15 25.07 27.04 37.85 28.48 32.94 39.78 41.24 41.56 41.33 38.85 39.25 39.49 39.65 39.53 39.41 38.15 37.19 36.96 35.51 35.40 35.85 35.56 35.27 34.36 33.43 33.11 33.11 32.34 32.18 31.48 30.53 29.94 29.21 29.30
29.10 33.24 43.69 44.01 44.28 42.06 37.66 32.50 40.03 31.75 32.11 23.97 28.85 35.65 39.55 39.97 38.85 38.83 38.32 38.67 37.50 36.93 38.20 39.53 38.82 37.97 36.90 36.12 35.59 35.52 35.76 35.77 35.26 34.21 33.26 32.68 32.89 32.62 31.76 31.70 31.08 30.21 29.56 31.27
35.47 29.97 41.02 42.72 44.40 43.97 40.41 41.64 31.23 32.06 16.57 16.55 26.08 32.34 30.95 32.81 34.83 37.83 37.34 37.12 37.25 39.17 39.46 38.80 38.21 37.56 37.02 36.68 36.08 35.83 36.07 35.67 34.87 33.75 33.34 32.99 32.69 33.14 32.56 32.08 31.00 30.11 29.55 29.53
41.98 34.24 34.36 40.59 37.05 33.97 35.71 32.86 34.17 29.01 25.47 24.99 21.29 27.73 36.87 34.44 35.05 34.61 35.71 37.81 37.76 38.73 38.83 38.39 38.37 37.88 37.14 36.25 36.03 35.53 35.36 35.11 34.18 33.71 33.11 32.58 32.41 32.84 32.56 31.81 31.33 30.61 30.19 29.72
43.84 37.61 31.78 35.52 43.03 43.68 41.34 35.53 33.25 24.64 19.67 27.27 22.73 24.86 36.22 39.32 37.51 37.73 37.41 38.20 37.54 39.60 39.48 38.66 38.22 37.39 36.72 36.31 35.82 35.16 34.79 34.68 34.06 34.10 33.50 32.47 32.61 32.35 31.48 31.66 31.52 31.77 30.66 30.43
43.27 34.17 30.50 32.31 37.86 40.70 37.17 38.10 35.34 28.36 28.39 26.52 21.01 23.34 40.36 40.00 38.97 39.22 37.21 37.36 38.69 39.64 38.91 38.18 37.51 37.24 36.87 36.32 36.28 35.02 34.73 34.38 34.39 34.00 32.66 32.18 31.54 31.47 30.45 31.00 31.52 31.82 30.37 29.02
45.86 38.64 32.60 30.51 35.17 36.82 33.12 36.29 35.47 33.08 24.85 26.13 23.69 26.88 31.37 33.13 36.21 37.47 37.75 37.86 38.85 39.74 39.24 38.20 36.91 36.36 36.72 36.77 36.10 35.00 34.27 34.39 34.04 33.43 32.15 31.12 30.67 31.24 30.66 31.06 31.15 31.22 30.35 28.39
44.49 33.67 37.80 40.16 42.15 38.54 36.72 36.11 36.12 30.92 31.53 29.19 27.62 29.46 30.69 34.44 36.72 38.10 39.05 38.94 39.83 39.77 39.29 38.76 36.70 35.69 35.97 35.51 35.29 35.35 34.45 34.10 33.80 32.94 31.82 31.06 31.58 31.81 31.31 31.06 30.88 30.62 29.68 28.69
43.43 36.45 38.55 36.53 40.16 38.64 35.79 37.29 37.55 37.05 33.38 31.60 33.89 29.47 35.99 37.68 40.39 39.75 40.26 40.05 39.92 40.09 40.13 39.57 38.36 37.08 36.58 36.20 35.05 35.42 34.00 33.58 33.70 32.63 32.26 32.83 32.71 32.27 30.97 30.87 30.56 29.46 28.48 27.72
39.60 36.80 33.20 31.13 37.63 34.79 27.95 30.17 36.77 37.11 37.06 36.70 31.00 35.16 39.08 37.61 38.47 40.97 40.48 40.97 40.40 41.24 40.87 39.49 38.19 37.44 36.67 36.19 35.86 33.68 33.35 33.92 32.83 32.63 33.53 33.24 32.90 31.68 30.97 31.09 29.98 28.23 27.06 26.74
39.32 37.06 34.27 29.57 32.53 21.11 34.90 40.40 40.03 38.88 39.85 39.83 38.74 38.37 40.82 40.71 40.23 42.95 42.94 41.74 41.22 42.12 41.68 40.34 38.94 37.01 36.73 35.73 34.78 34.03 33.82 33.17 32.72 32.34 32.97 33.12 32.35 31.25 30.98 30.20 28.80 27.75 27.22 26.32
42.57 37.59 31.67 27.78 26.84 32.45 36.80 38.49 36.75 36.57 35.98 41.87 40.39 40.34 40.44 41.32 39.38 38.24 42.90 44.13 42.68 42.85 42.46 40.39 38.07 37.37 36.27 35.65 35.05 34.00 32.80 32.60 32.54 31.89 32.26 32.76 32.09 30.76 30.20 28.96 27.89 27.50 26.90 26.04
41.45 39.45 34.08 27.85 26.56 25.61 34.05 38.00 41.33 41.03 29.73 41.21 42.68 40.57 39.68 39.25 32.99 34.95 42.13 43.55 41.99 42.00 40.04 37.78 37.52 37.07 36.00 35.27 34.77 33.03 31.83 31.63 31.26 32.04 32.54 32.64 32.33 30.80 28.98 28.11 27.60 27.45 26.64 27.10
32.25 32.05 27.99 23.58 23.21 30.66 40.51 40.39 42.04 29.40 31.43 40.84 42.22 41.09 38.22 36.63 38.38 39.09 41.63 41.59 41.71 40.45 38.54 38.24 37.41 36.29 35.84 35.40 34.20 32.39 31.72 31.14 32.78 33.41 33.17 32.61 31.55 29.55 28.25 27.33 27.12 26.49 25.93 24.94
31.57 28.96 26.93 28.06 25.20 24.87 42.64 39.59 34.22 37.63 40.84 40.65 40.18 39.89 39.08 39.53 40.39 41.31 41.02 39.82 39.08 38.00 37.77 37.94 36.40 35.80 35.91 35.36 34.11 32.29 31.27 33.07 33.87 33.35 32.46 31.10 30.10 29.72 27.75 25.59 25.04 25.44 24.66 22.86
30.98 34.27 30.96 34.56 32.97 40.66 41.80 41.00 42.59 42.78 41.14 40.84 40.12 40.25 41.92 41.17 40.72 40.97 39.61 39.31 38.88 38.26 37.54 37.94 36.62 35.80 35.73 35.29 34.51 32.32 32.37 33.88 33.55 32.34 31.04 29.95 28.98 26.28 24.72 23.65 22.09 21.59 22.43 22.16
37.57 40.50 35.68 35.77 39.10 41.63 42.11 42.23 42.50 41.83 41.37 42.56 42.71 42.89 42.94 41.09 41.49 40.33 39.86 39.05 38.22 37.78 37.21 37.45 36.55 35.55 34.58 35.07 34.81 33.89 33.95 34.59 33.51 31.43 29.48 28.29 26.46 24.29 22.56 22.32 21.86 19.68 19.78 21.05
36.74 39.04 37.67 37.01 40.62 43.04 42.36 42.14 42.37 42.03 43.19 44.47 43.33 43.60 42.88 42.48 41.25 40.57 39.42 39.13 38.48 37.78 37.87 37.63 36.67 36.04 35.38 34.94 34.11 34.74 34.64 34.79 32.89 31.67 29.48 27.15 26.17 24.13 22.28 21.33 20.17 21.58 21.32 20.82
38.57 37.28 35.38 33.68 41.05 41.34 42.16 43.70 43.57 42.64 42.08 44.15 43.07 42.24 43.56 43.58 42.04 41.08 39.85 39.71 38.72 37.74 38.02 37.15 36.72 36.22 35.48 35.11 34.25 34.49 35.33 34.46 32.51 30.54 28.57 25.35 23.96 23.11 22.90 22.31 21.36 26.30 25.34 26.61
MSLP
1012.48 1013.33 1013.31 1013.13 1013.07 1013.45 1014.18 1015.00 1015.62 1015.86 1016.23 1017.00 1017.77 1018.63 1019.50 1019.98 1020.85 1021.04 1021.33 1021.45 1021.84 1022.16 1022.40 1022.74 1023.22 1023.69 1024.13 1024.31 1024.66 1024.91 1025.29 1025.43 1025.60 1025.78 1026.23 1026.38 1026.29 1025.74 1025.32 1025.23 1024.91 1024.67 1024.46 1024.18
1013.33 1012.69 1012.77 1012.92 1013.26 1013.34 1013.73 1014.53 1015.21 1015.59 1016.05 1016.96 1017.77 1018.35 1018.85 1019.47 1019.38 1019.71 1020.40 1020.99 1021.41 1022.03 1022.48 1022.90 1023.33 1023.75 1024.02 1024.63 1024.87 1025.14 1025.31 1025.59 1025.90 1026.07 1026.61 1026.62 1026.28 1025.78 1025.51 1025.49 1025.26 1024.97 1024.69 1024.36
1013.14 1012.45 1012.73 1013.07 1013.16 1013.55 1013.62 1013.98 1014.77 1015.36 1016.28 1017.00 1017.61 1018.13 1018.27 1018.52 1018.87 1019.43 1019.86 1020.19 1020.82 1021.13 1022.02 1022.80 1023.52 1024.04 1024.33 1024.79 1025.04 1025.26 1025.52 1025.87 1026.14 1026.45 1026.66 1026.64 1026.25 1025.89 1025.77 1025.67 1025.63 1025.31 1025.06 1024.65
1012.93 1012.43 1012.48 1012.65 1012.67 1013.15 1013.45 1013.44 1014.32 1015.57 1016.77 1017.63 1017.65 1018.31 1017.71 1017.50 1018.19 1018.76 1019.15 1019.69 1020.17 1020.91 1021.94 1022.58 1023.53 1024.27 1024.63 1024.97 1025.02 1025.38 1025.67 1026.14 1026.56 1026.72 1026.99 1026.94 1026.82 1026.63 1026.46 1026.39 1026.24 1025.80 1025.30 1024.80
1012.68 1012.47 1012.02 1011.92 1011.89 1012.68 1013.76 1014.14 1015.03 1016.20 1017.32 1017.92 1018.27 1018.85 1017.37 1017.46 1018.24 1018.02 1018.25 1018.83 1019.70 1020.49 1021.38 1022.55 1023.37 1024.08 1024.69 1025.14 1025.37 1025.66 1026.07 1026.62 1026.78 1027.14 1027.24 1027.17 1027.10 1026.94 1026.76 1026.69 1026.43 1026.14 1025.55 1024.88
1012.96 1012.65 1012.74 1012.09 1012.29 1012.80 1014.12 1015.23 1016.52 1017.55 1018.55 1019.32 1018.30 1018.40 1017.35 1017.16 1016.15 1016.67 1017.55 1018.38 1019.37 1020.54 1021.50 1022.51 1023.41 1024.22 1025.04 1025.37 1025.68 1025.99 1026.45 1026.96 1027.06 1027.40 1027.47 1027.37 1027.31 1027.16 1027.14 1026.99 1026.84 1026.48 1025.93 1025.20
1013.66 1013.81 1013.40 1013.39 1013.65 1014.04 1015.00 1016.79 1018.57 1019.73 1020.17 1019.68 1018.34 1018.32 1016.31 1015.55 1014.76 1015.10 1016.18 1017.89 1019.28 1020.37 1021.59 1022.75 1023.68 1024.60 1025.17 1025.59 1026.05 1026.46 1026.78 1027.14 1027.48 1027.77 1027.72 1027.57 1027.43 1027.31 1027.37 1027.30 1027.22 1026.91 1026.28 1025.55
1014.97 1015.27 1014.73 1014.43 1014.52 1014.92 1015.88 1017.15 1018.83 1020.02 1020.60 1019.83 1018.26 1017.70 1015.83 1014.92 1014.35 1014.20 1015.71 1017.88 1019.47 1020.80 1021.92 1022.95 1023.84 1024.65 1025.29 1025.71 1026.25 1026.65 1027.00 1027.38 1027.96 1028.10 1028.01 1027.81 1027.63 1027.50 1027.48 1027.43 1027.32 1027.14 1026.59 1025.88
1015.89 1015.84 1015.00 1014.99 1014.86 1015.04 1016.14 1017.19 1017.83 1019.67 1020.85 1020.36 1018.99 1017.41 1016.11 1015.52 1015.37 1015.65 1016.93 1018.41 1020.03 1021.19 1022.12 1023.10 1024.22 1024.93 1025.38 1025.89 1026.46 1026.82 1027.08 1027.84 1028.17 1028.37 1028.26 1028.06 1027.84 1027.70 1027.66 1027.57 1027.38 1027.23 1026.70 1025.87
1016.67 1016.96 1016.26 1015.63 1015.71 1015.68 1016.30 1017.75 1018.80 1020.20 1021.77 1021.91 1020.15 1018.63 1017.09 1016.79 1017.01 1017.31 1018.04 1019.07 1020.49 1021.45 1022.56 1023.68 1024.49 1024.98 1025.63 1026.17 1026.53 1026.81 1027.42 1028.07 1028.47 1028.61 1028.47 1028.30 1028.07 1027.96 1027.77 1027.63 1027.52 1027.24 1026.80 1026.31
1016.43 1017.38 1017.49 1016.41 1016.96 1017.40 1017.54 1018.75 1020.08 1021.42 1022.22 1022.56 1021.80 1019.51 1017.98 1017.65 1017.51 1018.03 1018.76 1019.43 1020.48 1021.70 1022.78 1023.75 1024.55 1025.27 1025.74 1026.25 1026.49 1027.36 1027.89 1028.39 1028.76 1028.85 1028.64 1028.51 1028.33 1028.23 1028.01 1027.86 1027.62 1027.28 1026.98 1026.63
1017.10 1017.51 1018.36 1018.32 1017.81 1017.91 1018.12 1019.14 1019.85 1021.74 1023.02 1022.85 1022.58 1020.07 1018.38 1018.10 1018.02 1018.14 1019.21 1020.00 1020.96 1021.74 1022.79 1023.69 1024.50 1025.21 1025.99 1026.33 1026.97 1027.68 1028.26 1028.65 1028.93 1028.96 1028.84 1028.70 1028.62 1028.50 1028.37 1028.18 1027.86 1027.62 1027.36 1026.95
1017.18 1017.75 1018.58 1019.13 1018.56 1018.43 1019.00 1019.02 1020.13 1021.13 1021.88 1022.58 1022.49 1020.18 1018.76 1018.34 1018.42 1018.60 1019.30 1020.34 1021.18 1022.06 1023.05 1023.83 1024.62 1025.37 1026.03 1026.64 1027.23 1027.94 1028.46 1028.87 1029.04 1029.02 1028.98 1028.90 1028.89 1028.82 1028.78 1028.54 1028.23 1027.97 1027.72 1027.53
1017.42 1017.36 1016.65 1016.49 1016.19 1016.78 1017.88 1017.57 1019.02 1019.81 1021.49 1021.89 1020.97 1020.10 1019.29 1018.84 1018.74 1018.91 1019.44 1020.11 1021.04 1021.92 1022.72 1023.70 1024.63 1025.33 1026.08 1026.82 1027.38 1028.06 1028.68 1028.91 1029.08 1029.17 1029.09 1029.18 1029.18 1029.21 1029.10 1028.87 1028.62 1028.39 1028.12 1028.03
1017.39 1016.77 1016.02 1015.50 1015.22 1015.64 1015.76 1016.25 1017.52 1018.66 1019.23 1019.90 1019.38 1019.39 1018.36 1018.18 1018.37 1018.68 1019.13 1020.01 1020.89 1021.80 1022.68 1023.50 1024.46 1025.31 1026.23 1026.98 1027.58 1028.17 1028.69 1028.98 1029.13 1029.31 1029.29 1029.42 1029.45 1029.46 1029.36 1029.18 1029.03 1028.86 1028.73 1028.56
1016.92 1016.71 1016.07 1015.93 1015.08 1015.05 1015.12 1015.08 1015.62 1016.77 1017.69 1017.85 1018.08 1018.17 1017.19 1017.16 1017.81 1018.46 1018.76 1019.53 1020.35 1021.18 1022.08 1023.13 1024.11 1025.19 1026.18 1026.91 1027.56 1028.13 1028.76 1029.07 1029.28 1029.45 1029.53 1029.58 1029.70 1029.77 1029.68 1029.54 1029.50 1029.46 1029.35 1029.18
1017.28 1017.09 1016.95 1016.26 1015.36 1014.77 1014.65 1013.76 1014.19 1014.91 1015.13 1015.69 1016.52 1015.78 1016.25 1016.72 1017.16 1017.44 1017.99 1018.68 1019.46 1020.43 1021.47 1022.59 1023.74 1024.93 1025.87 1026.65 1027.27 1028.13 1028.76 1029.10 1029.46 1029.60 1029.70 1029.90 1030.04 1030.09 1030.08 1030.03 1029.94 1029.94 1029.87 1029.69
1017.71 1017.50 1017.04 1016.34 1015.63 1014.70 1012.62 1011.85 1012.01 1012.55 1012.94 1013.67 1013.97 1014.40 1014.68 1015.11 1015.59 1016.32 1016.94 1017.72 1018.75 1019.71 1020.91 1022.28 1023.53 1024.76 1025.61 1026.43 1027.40 1028.09 1028.67 1029.20 1029.62 1029.85 1030.02 1030.25 1030.39 1030.49 1030.59 1030.50 1030.46 1030.52 1030.50 1030.37
1016.98 1017.54 1017.06 1016.62 1016.15 1014.03 1011.87 1010.78 1010.62 1011.27 1011.57 1011.81 1012.45 1013.28 1013.94 1014.56 1015.53 1016.29 1016.43 1016.93 1017.71 1018.80 1020.30 1021.72 1022.96 1024.04 1025.42 1026.58 1027.37 1028.02 1028.78 1029.35 1029.83 1030.10 1030.36 1030.63 1030.79 1030.98 1031.06 1031.13 1031.17 1031.18 1031.18 1031.07
1015.93 1016.77 1016.88 1017.22 1016.39 1014.50 1011.72 1010.29 1009.90 1010.21 1010.79 1010.73 1011.20 1012.34 1013.36 1014.42 1015.65 1015.80 1015.89 1016.82 1017.88 1019.00 1020.19 1021.67 1023.09 1024.49 1025.74 1026.65 1027.21 1028.08 1028.92 1029.51 1029.98 1030.29 1030.63 1030.92 1031.20 1031.45 1031.60 1031.74 1031.86 1031.90 1031.85 1031.85
1015.67 1016.27 1017.03 1017.00 1016.06 1013.72 1011.22 1010.17 1009.95 1010.58 1011.30 1010.54 1010.73 1011.74 1012.82 1013.82 1014.02 1014.56 1015.57 1016.85 1017.65 1018.92 1020.45 1021.85 1023.24 1024.43 1025.43 1026.39 1027.19 1028.31 1028.99 1029.61 1030.06 1030.41 1030.81 1031.28 1031.65 1031.94 1032.15 1032.34 1032.45 1032.47 1032.46 1032.45
1015.19 1015.74 1016.67 1016.56 1015.42 1013.49 1010.91 1010.25 1010.25 1010.35 1010.29 1010.28 1010.63 1011.29 1012.37 1013.11 1014.13 1014.87 1015.94 1017.17 1018.35 1019.66 1021.10 1022.34 1023.53 1024.70 1025.67 1026.29 1027.20 1028.30 1029.05 1029.65 1030.10 1030.54 1031.07 1031.63 1032.13 1032.53 1032.81 1032.88 1033.03 1033.06 1033.06 1033.06
1014.53 1014.28 1014.67 1014.71 1013.35 1011.60 1010.65 1010.16 1009.90 1009.88 1010.07 1010.13 1010.44 1010.99 1011.95 1013.24 1014.40 1015.27 1016.65 1017.68 1018.83 1019.97 1021.53 1022.59 1023.50 1024.80 1025.76 1026.40 1027.14 1028.21 1029.01 1029.58 1030.21 1030.76 1031.51 1032.21 1032.80 1033.07 1033.23 1033.35 1033.57 1033.74 1033.75 1033.80
1013.38 1013.16 1013.39 1013.52 1011.92 1011.18 1010.54 1010.15 1009.88 1009.85 1010.03 1009.98 1010.28 1011.08 1011.87 1013.46 1014.58 1015.89 1017.02 1018.32 1019.31 1020.46 1021.50 1022.62 1023.81 1024.87 1025.90 1026.54 1027.20 1027.82 1028.70 1029.50 1030.18 1031.09 1032.02 1032.57 1032.93 1033.64 1033.77 1033.88 1034.09 1034.28 1034.47 1034.49
1013.04 1012.68 1012.69 1012.44 1011.38 1010.66 1010.35 1010.12 1010.03 1010.10 1010.25 1010.52 1011.02 1011.33 1012.19 1013.30 1014.99 1015.74 1017.34 1018.42 1019.48 1020.62 1021.76 1022.73 1023.65 1024.70 1025.73 1026.52 1027.22 1027.76 1028.59 1029.39 1030.30 1031.10 1031.94 1032.75 1033.41 1033.67 1034.04 1034.57 1034.93 1035.11 1035.28 1035.23
1012.32 1011.75 1011.88 1011.68 1010.79 1010.36 1009.97 1009.86 1010.07 1010.36 1010.61 1011.03 1011.45 1012.64 1012.91 1013.15 1014.79 1016.15 1017.35 1018.34 1019.49 1020.66 1021.80 1022.92 1023.69 1024.65 1025.65 1026.40 1027.12 1027.86 1028.52 1029.21 1030.04 1031.11 1031.96 1032.83 1033.36 1033.90 1034.57 1035.05 1035.36 1035.12 1035.10 1034.96
Wind_Speed
3 3 9 19 15 5 6 5 7 5 7 6 10 6 14 12 7 10 9 8 9 8 8 7 10 9 9 8 8 7 7 4 4 4 4 3 3 3 3 4 6 7 7 7
5 9 11 8 9 8 4 4 2 2 8 5 6 11 9 12 19 15 11 9 9 7 8 7 8 6 6 7 7 7 7 7 5 4 2 0 2 2 2 2 5 6 8 7
10 9 2 7 8 10 7 6 5 6 6 2 1 6 5 10 6 7 7 7 8 17 14 10 8 8 8 7 7 8 7 7 6 7 3 3 3 2 4 4 6 6 7 6
9 13 15 15 13 7 5 4 10 12 8 5 6 6 5 7 16 12 12 8 12 12 9 9 11 6 8 6 7 8 8 8 7 6 5 4 2 3 3 2 3 5 6 7
9 8 6 5 11 5 2 7 5 4 4 4 1 4 7 9 9 14 15 10 10 12 16 12 12 9 6 6 8 7 9 7 7 7 5 4 5 3 3 3 6 6 6 8
4 3 3 2 5 6 7 8 9 6 3 3 6 8 7 6 13 16 13 8 11 11 13 14 9 10 7 7 8 8 9 7 8 7 6 6 7 5 5 4 5 5 5 7
3 4 6 5 6 7 7 7 4 6 5 7 3 3 10 6 7 20 20 12 14 16 16 14 13 10 7 9 8 8 8 8 8 7 6 6 6 7 6 4 4 5 6 7
6 4 1 1 3 7 5 6 7 8 4 4 4 5 6 4 7 15 13 14 16 16 13 15 12 10 8 9 8 8 8 9 7 6 5 5 6 4 4 3 3 3 4 5
5 4 0 4 4 6 4 3 4 5 4 5 3 3 4 4 10 12 17 19 16 11 12 14 11 9 8 8 8 9 9 7 6 5 5 6 6 6 5 4 3 2 4 6
5 3 3 1 3 7 3 1 1 4 2 3 5 4 5 2 6 9 14 17 12 11 14 12 10 9 6 8 8 9 8 8 6 5 4 5 6 6 5 5 2 3 5 6
5 4 6 5 5 2 4 2 6 5 3 4 1 7 4 4 6 10 9 15 16 14 13 12 9 7 8 7 9 8 8 8 6 4 5 6 6 6 6 5 4 3 5 6
3 6 2 2 2 4 3 5 7 6 5 1 5 9 3 4 6 9 9 11 10 13 13 12 11 10 8 9 8 7 7 7 5 4 5 5 6 6 6 6 6 6 6 6
2 1 5 1 4 5 8 5 3 4 3 5 7 8 2 4 7 7 13 9 11 12 12 10 9 9 9 9 8 7 7 6 5 5 5 5 5 6 6 6 6 6 6 7
10 6 8 9 6 7 8 8 6 6 4 5 8 3 5 2 7 7 9 10 12 13 14 11 8 9 9 8 8 8 7 6 5 5 5 5 5 5 5 5 6 6 6 6
4 4 2 3 5 7 6 7 12 10 6 7 5 10 8 9 9 9 9 10 14 13 13 12 11 10 10 9 7 8 7 6 5 5 6 5 5 5 6 6 6 6 6 6
4 5 5 12 6 8 5 10 13 14 4 6 5 7 8 6 6 7 13 14 15 15 14 13 13 12 12 11 9 9 7 6 5 5 6 5 6 5 6 6 6 6 6 6
4 3 5 7 2 3 7 9 13 9 9 13 9 10 6 5 11 13 12 15 16 16 15 15 15 13 13 12 10 9 7 6 6 6 6 6 5 5 6 6 6 6 6 6
5 5 4 3 3 2 10 4 9 16 10 13 5 8 12 9 13 11 13 15 14 16 15 14 13 12 12 9 9 9 7 7 6 6 6 5 5 6 6 6 6 7 5 6
13 3 1 4 3 6 8 4 5 7 7 17 17 9 7 6 6 3 10 15 16 15 14 13 14 15 13 13 11 10 8 7 6 6 6 5 5 6 6 6 6 6 6 5
10 6 5 2 4 6 7 3 3 4 5 4 16 10 9 9 5 6 12 11 10 14 17 17 16 15 14 11 11 11 8 7 6 6 6 5 6 6 6 6 6 5 6 7
4 4 5 2 2 9 7 3 2 4 8 3 9 9 9 7 7 6 12 10 17 18 19 18 17 15 14 12 11 10 8 7 6 6 6 7 7 7 6 6 5 5 6 7
5 6 4 2 1 7 3 2 2 7 3 1 2 8 8 9 11 15 16 18 19 19 18 17 15 13 11 12 12 10 8 7 7 7 8 7 7 6 6 7 6 6 6 7
2 7 6 8 8 6 4 5 1 4 2 2 1 6 14 16 13 17 16 18 18 19 16 14 15 13 10 11 12 11 8 9 8 8 8 8 8 6 5 6 5 5 5 5
1 4 3 3 4 6 5 1 2 2 3 3 5 14 18 17 16 16 16 15 15 16 15 13 15 13 10 10 10 11 10 10 9 9 9 7 8 7 5 4 4 4 4 5
5 5 4 4 6 3 1 4 5 2 6 8 8 14 19 19 16 18 16 15 14 14 13 14 14 12 11 10 10 12 10 11 9 9 8 7 6 6 5 6 4 5 4 4
4 6 5 6 7 4 6 8 4 5 5 7 12 7 11 20 17 16 15 14 14 14 13 12 12 11 11 11 11 10 10 11 9 9 7 6 6 4 4 5 4 9 7 10
Wind_Direction
295 110 191 194 195 163 169 188 192 226 187 131 202 212 190 193 188 204 209 209 194 180 177 161 142 135 123 108 115 120 111 72 74 55 42 16 332 326 31 59 34 26 9 359
320 237 230 214 209 237 263 141 166 71 159 143 192 243 193 183 208 199 203 199 183 160 159 163 130 132 111 129 118 120 104 84 70 68 51 25 303 310 36 66 25 20 10 2
232 255 217 191 224 233 232 170 197 162 145 290 125 279 165 213 198 203 225 194 167 173 166 162 135 137 128 128 125 125 105 89 74 77 55 349 326 349 19 22 18 4 356 343
248 264 257 233 217 182 229 309 143 131 121 211 144 274 289 197 197 199 219 185 177 165 153 141 136 138 139 143 106 112 103 90 83 75 63 47 29 24 8 37 354 347 338 338
242 308 207 188 196 133 180 98 114 118 131 91 231 61 267 132 199 211 214 203 177 162 156 139 150 144 142 126 114 102 91 88 81 74 72 55 38 28 29 22 13 342 334 336
227 290 328 273 53 106 140 65 34 41 61 20 228 139 280 180 215 202 208 196 158 140 134 138 132 129 123 107 103 97 96 87 82 74 55 55 54 36 44 22 11 349 329 337
38 357 328 34 67 6 75 62 7 355 4 224 155 131 245 246 232 190 192 159 148 141 141 137 139 137 122 110 109 105 100 85 78 75 51 48 49 53 65 47 12 353 345 348
140 322 295 163 162 176 189 146 155 198 206 259 106 231 259 305 302 192 161 129 135 143 141 145 139 130 123 109 107 105 99 86 86 73 50 45 45 50 56 58 31 360 329 321
118 217 314 45 327 135 232 202 190 114 345 53 247 267 332 359 35 105 128 132 143 143 136 134 129 130 121 113 115 116 98 94 89 79 59 45 42 44 38 44 24 344 323 343
212 117 357 35 341 21 58 44 113 352 98 294 297 275 229 154 102 119 133 135 134 131 129 131 132 130 124 117 118 96 100 104 98 80 61 54 42 37 27 36 18 1 330 343
142 101 314 55 46 232 349 351 53 114 121 162 289 267 223 220 177 148 139 140 144 139 138 136 139 138 125 120 103 108 103 106 94 84 70 57 40 31 28 13 15 344 340 349
297 101 57 351 323 306 306 250 144 137 243 80 136 274 281 278 200 139 146 147 143 138 141 145 147 132 126 113 109 109 107 108 114 103 78 60 46 32 29 11 12 23 359 2
254 153 100 256 335 2 260 202 118 126 77 182 140 261 344 347 143 158 140 145 138 133 138 142 132 134 128 116 115 112 115 122 124 94 85 60 41 36 27 23 24 29 19 19
63 228 164 195 178 161 212 172 178 134 131 169 219 258 285 245 166 141 143 140 143 148 150 146 130 133 130 128 122 115 115 129 122 99 87 71 43 44 34 31 36 36 25 27
127 275 173 245 255 188 213 178 182 197 177 180 228 202 218 202 191 174 152 141 143 151 155 152 146 137 132 125 117 113 120 127 120 105 87 76 60 54 40 33 38 39 32 31
167 278 349 301 220 222 230 212 197 207 183 264 152 250 209 195 139 157 160 156 158 162 162 155 147 138 136 133 135 127 128 125 116 106 95 80 67 53 38 33 41 44 35 26
312 182 190 227 357 351 327 223 190 189 196 192 197 215 158 167 181 182 169 167 168 168 162 158 153 145 141 146 138 132 134 124 114 105 94 81 71 53 39 35 39 51 43 32
261 274 238 194 46 337 238 215 189 205 200 200 173 181 177 182 193 175 174 173 169 167 161 151 144 136 143 135 123 128 126 122 117 100 95 86 74 57 44 42 40 45 36 32
208 240 304 135 222 290 297 318 157 167 252 203 212 185 192 167 98 221 174 178 172 166 153 146 144 145 139 133 138 130 124 122 116 106 99 97 85 63 50 46 40 39 50 38
197 210 151 133 169 240 244 282 56 93 285 332 200 181 169 141 149 238 180 159 132 131 138 138 140 132 131 145 136 131 131 125 126 118 111 103 92 74 62 58 48 42 49 53
118 79 141 128 201 286 255 279 21 102 238 330 186 179 148 170 183 162 127 125 136 138 137 134 136 141 147 143 135 133 133 135 135 112 107 92 87 81 70 63 47 52 57 56
146 134 181 80 83 277 242 16 194 219 259 287 199 173 160 119 122 126 128 130 130 134 134 132 133 140 145 141 135 138 140 140 125 115 101 94 84 70 68 70 51 52 57 57
148 176 181 178 215 245 273 205 184 175 183 316 271 135 132 129 133 135 133 133 137 135 132 140 139 140 143 143 143 139 149 133 131 117 105 97 87 77 65 74 63 62 49 52
73 150 167 89 265 234 213 255 80 67 22 328 131 132 133 133 136 130 127 132 134 138 141 140 141 144 146 149 146 145 146 139 134 118 116 112 108 91 72 69 66 67 58 62
209 133 171 268 294 30 240 210 176 83 55 86 83 140 139 135 142 135 136 141 141 139 143 146 148 152 153 149 145 151 144 140 134 131 130 118 108 115 103 78 69 69 49 73
214 183 161 216 232 171 239 198 175 133 95 128 118 108 142 140 141 140 143 145 143 144 144 145 149 146 148 151 150 149 148 145 142 137 139 136 136 127 108 103 85 80 90 76